Weather History for KI75 - November, 2012

Change the Weather History Date:

Sunday, November 4, 2012

  Actual Average (KLWD) Record (KLWD)
Temperature  
Mean Temperature 44 °F 45 °F  
Max Temperature 55 °F 55 °F 75 °F (1978)
Min Temperature 33 °F 36 °F 3 °F (1991)
Degree Days  
Heating Degree Days 21 20  
Month to date heating degree days 76  
Since 1 July heating degree days 560  
Cooling Degree Days 0 0  
Month to date cooling degree days 0  
Year to date cooling degree days 946  
Moisture  
Dew Point 36 °F    
Average Humidity 73    
Maximum Humidity 89    
Minimum Humidity 45    
Precipitation  
Precipitation 0.00 in 0.13 in 0.53 in (1990)
Month to date precipitation 0.49  
Sea Level Pressure  
Sea Level Pressure 30.14 in    
Wind  
Wind Speed 4 mph (SE)    
Max Wind Speed 13 mph    
Max Gust Speed 17 mph    
Visibility 10 miles    
Events      
T = Trace of Precipitation, MM = Missing Value Source: NWS Daily Summary

Daily Weather History Graph

Daily Weather History Graph

Search for Another Location

Airport or City:

Trip Planner

Search our weather history database for the weather conditions in past years. The results will help you decide how hot, cold, wet, or windy it might be!

Date:

Astronomy

Nov. 04, 2012 Rise Set
Actual Time 6:49 AM CST 5:06 PM CST
Civil Twilight 6:21 AM CST 5:35 PM CST
Nautical Twilight 5:48 AM CST 6:07 PM CST
Astronomical Twilight 5:16 AM CST 6:39 PM CST
Moon 9:44 PM CST (11/4) 11:34 AM CST (11/4)
Length of Visible Light 11h 14m
Length of Day
10h 16m
Waning Gibbous, 72% of the Moon is Illuminated
Nov 4
Waning Gibbous
Nov 6
Last Quarter
Nov 13
New
Nov 20
First Quarter
Nov 28
Full

Hourly Weather History & Observations

Time (CST) Temp. Windchill Dew Point Humidity Pressure Visibility Wind Dir Wind Speed Gust Speed Precip Events Conditions
12:15 AM 34.0 °F 31.0 °F 28.4 °F 80% 30.19 in 7.0 mi East 3.5 mph - N/A   Clear
12:35 AM 33.8 °F 30.8 °F 28.8 °F 82% 30.19 in 10.0 mi SE 3.5 mph - N/A   Clear
12:55 AM 34.7 °F 30.6 °F 28.8 °F 79% 30.18 in 10.0 mi SE 4.6 mph - N/A   Clear
1:15 AM 36.3 °F 32.5 °F 29.3 °F 76% 30.19 in 10.0 mi SSE 4.6 mph - N/A   Clear
1:35 AM 35.1 °F 31.0 °F 28.9 °F 78% 30.19 in 10.0 mi SSE 4.6 mph - N/A   Clear
1:55 AM 37.0 °F 33.3 °F 30.7 °F 78% 30.19 in 10.0 mi South 4.6 mph - N/A   Mostly Cloudy
1:15 AM 38.1 °F 35.7 °F 30.7 °F 75% 30.19 in 10.0 mi SSE 3.5 mph - N/A   Overcast
1:35 AM 38.3 °F 35.9 °F 31.5 °F 76% 30.19 in 10.0 mi SSE 3.5 mph - N/A   Overcast
1:55 AM 39.0 °F - 31.6 °F 75% 30.20 in 10.0 mi Calm Calm - N/A   Overcast
2:15 AM 38.5 °F - 32.0 °F 78% 30.19 in 10.0 mi Calm Calm - N/A   Overcast
2:35 AM 38.5 °F - 32.0 °F 78% 30.20 in 10.0 mi Calm Calm - N/A   Overcast
2:55 AM 39.2 °F 37.0 °F 32.2 °F 76% 30.19 in 10.0 mi South 3.5 mph - N/A   Overcast
3:15 AM 39.2 °F 37.0 °F 32.0 °F 75% 30.19 in 10.0 mi SE 3.5 mph - N/A   Overcast
3:35 AM 39.4 °F - 32.2 °F 75% 30.19 in 10.0 mi Calm Calm - N/A   Overcast
3:55 AM 39.2 °F 37.0 °F 32.5 °F 77% 30.19 in 10.0 mi South 3.5 mph - N/A   Overcast
4:15 AM 39.4 °F - 32.4 °F 76% 30.19 in 10.0 mi Calm Calm - N/A   Overcast
4:35 AM 39.4 °F - 32.2 °F 75% 30.19 in 10.0 mi Calm Calm - N/A   Overcast
4:55 AM 39.2 °F - 32.9 °F 78% 30.19 in 10.0 mi Calm Calm - N/A   Overcast
5:15 AM 39.2 °F - 32.7 °F 78% 30.19 in 10.0 mi Calm Calm - N/A   Overcast
5:35 AM 39.4 °F - 32.9 °F 78% 30.19 in 10.0 mi Calm Calm - N/A   Overcast
5:55 AM 39.4 °F - 32.9 °F 78% 30.19 in 10.0 mi Calm Calm - N/A   Overcast
6:15 AM 39.4 °F - 32.9 °F 78% 30.19 in 10.0 mi Calm Calm - N/A   Overcast
6:35 AM 39.4 °F - 32.4 °F 76% 30.19 in 10.0 mi Calm Calm - N/A   Overcast
6:55 AM 39.4 °F 37.2 °F 32.9 °F 78% 30.19 in 10.0 mi SSE 3.5 mph - N/A   Overcast
7:15 AM 39.4 °F 37.2 °F 33.3 °F 79% 30.20 in 10.0 mi South 3.5 mph - N/A   Overcast
7:35 AM 40.1 °F 38.0 °F 33.4 °F 77% 30.21 in 10.0 mi South 3.5 mph - N/A   Mostly Cloudy
7:55 AM 40.6 °F 37.5 °F 33.8 °F 77% 30.21 in 10.0 mi South 4.6 mph - N/A   Overcast
8:15 AM 41.0 °F 39.0 °F 33.8 °F 76% 30.21 in 10.0 mi South 3.5 mph - N/A   Overcast
8:35 AM 41.4 °F 39.4 °F 34.7 °F 77% 30.21 in 10.0 mi South 3.5 mph - N/A   Overcast
8:55 AM 42.1 °F 39.2 °F 35.8 °F 78% 30.20 in 10.0 mi South 4.6 mph - N/A   Overcast
9:15 AM 43.3 °F - 35.8 °F 75% 30.20 in 10.0 mi Calm Calm - N/A   Overcast
9:35 AM 44.1 °F 42.5 °F 36.3 °F 74% 30.19 in 10.0 mi SSE 3.5 mph - N/A   Overcast
9:55 AM 45.1 °F 42.8 °F 36.9 °F 73% 30.19 in 10.0 mi South 4.6 mph - N/A   Overcast
10:15 AM 45.0 °F 42.6 °F 36.7 °F 73% 30.19 in 10.0 mi SSE 4.6 mph - N/A   Overcast
10:35 AM 45.0 °F 42.6 °F 37.4 °F 75% 30.19 in 10.0 mi SSE 4.6 mph - N/A   Light Drizzle
10:55 AM 46.0 °F 43.9 °F 37.9 °F 73% 30.19 in 10.0 mi SSE 4.6 mph - N/A   Overcast
11:15 AM 46.9 °F - 38.3 °F 72% 30.18 in 10.0 mi SE 4.6 mph - N/A   Overcast
11:35 AM 48.2 °F - 38.7 °F 70% 30.17 in 10.0 mi SE 4.6 mph - N/A   Overcast
11:55 AM 50.0 °F - 38.8 °F 66% 30.16 in 10.0 mi SE 4.6 mph - N/A   Overcast
12:15 PM 52.0 °F - 38.5 °F 60% 30.15 in 10.0 mi SE 4.6 mph - N/A   Overcast
12:35 PM 54.1 °F - 36.7 °F 52% 30.14 in 10.0 mi SSE 6.9 mph - N/A   Overcast
12:55 PM 53.8 °F - 34.2 °F 47% 30.13 in 10.0 mi SSE 8.1 mph - N/A   Overcast
1:15 PM 53.4 °F - 34.5 °F 49% 30.12 in 10.0 mi SSE 6.9 mph - N/A   Overcast
1:35 PM 53.6 °F - 35.8 °F 51% 30.11 in 10.0 mi SSE 8.1 mph - N/A   Overcast
1:55 PM 54.5 °F - 36.9 °F 51% 30.10 in 10.0 mi SE 9.2 mph - N/A   Overcast
2:15 PM 55.0 °F - 34.2 °F 45% 30.09 in 10.0 mi SE 8.1 mph - N/A   Mostly Cloudy
2:35 PM 54.3 °F - 34.9 °F 48% 30.09 in 10.0 mi SSE 9.2 mph - N/A   Overcast
2:55 PM 53.8 °F - 36.1 °F 51% 30.09 in 10.0 mi SE 8.1 mph - N/A   Overcast
3:15 PM 53.8 °F - 38.1 °F 55% 30.09 in 10.0 mi SE 10.4 mph - N/A   Overcast
3:35 PM 53.2 °F - 38.5 °F 57% 30.08 in 10.0 mi SE 11.5 mph - N/A   Overcast
3:55 PM 52.7 °F - 39.4 °F 61% 30.07 in 10.0 mi ESE 10.4 mph - N/A   Overcast
4:15 PM 52.0 °F - 39.4 °F 62% 30.07 in 10.0 mi SE 10.4 mph - N/A   Overcast
4:35 PM 51.4 °F - 39.2 °F 63% 30.07 in 10.0 mi SE 5.8 mph - N/A   Overcast
4:55 PM 51.1 °F - 39.4 °F 64% 30.08 in 10.0 mi SE 6.9 mph - N/A   Overcast
5:15 PM 50.5 °F - 39.7 °F 66% 30.08 in 10.0 mi SE 6.9 mph - N/A   Overcast
5:35 PM 50.2 °F - 39.6 °F 67% 30.08 in 10.0 mi SE 5.8 mph - N/A   Overcast
5:55 PM 50.0 °F - 39.7 °F 68% 30.09 in 10.0 mi ESE 4.6 mph - N/A   Overcast
6:15 PM 49.1 °F - 40.5 °F 72% 30.09 in 10.0 mi East 6.9 mph - N/A   Overcast
6:35 PM 48.2 °F - 41.0 °F 76% 30.09 in 10.0 mi ESE 5.8 mph - N/A   Drizzle
6:55 PM 47.3 °F - 41.2 °F 79% 30.09 in 10.0 mi ESE 8.1 mph - N/A   Light Drizzle
7:15 PM 46.8 °F - 41.2 °F 81% 30.09 in 10.0 mi ESE 9.2 mph - N/A   Light Drizzle
7:35 PM 46.4 °F 41.9 °F 41.2 °F 82% 30.08 in 10.0 mi ESE 9.2 mph - N/A   Light Drizzle
7:55 PM 45.9 °F 41.7 °F 41.2 °F 84% 30.08 in 10.0 mi ESE 8.1 mph - N/A   Light Drizzle
8:15 PM 45.5 °F 40.8 °F 41.4 °F 85% 30.08 in 10.0 mi ESE 9.2 mph - N/A   Drizzle
8:35 PM 45.3 °F 40.6 °F 41.4 °F 86% 30.08 in 7.0 mi ESE 9.2 mph - N/A   Drizzle
8:55 PM 45.0 °F 40.1 °F 41.0 °F 86% 30.08 in 7.0 mi SE 9.2 mph - N/A   Drizzle
9:15 PM 44.6 °F 39.2 °F 40.6 °F 86% 30.07 in 7.0 mi ESE 10.4 mph - N/A   Light Drizzle
9:35 PM 44.1 °F 37.7 °F 40.5 °F 87% 30.07 in 7.0 mi ESE 12.7 mph - N/A   Overcast
9:55 PM 43.9 °F 37.9 °F 40.6 °F 88% 30.06 in 7.0 mi SE 11.5 mph 16.1 mph N/A   Overcast
10:15 PM 43.7 °F 37.3 °F 40.5 °F 88% 30.06 in 7.0 mi SE 12.7 mph - N/A   Overcast
10:35 PM 43.7 °F 37.3 °F 40.5 °F 88% 30.06 in 7.0 mi SE 12.7 mph 17.3 mph N/A   Drizzle
10:55 PM 43.5 °F 37.9 °F 40.5 °F 89% 30.05 in 7.0 mi SE 10.4 mph - N/A   Drizzle